No identification:

 

2000 WO67                                                                   

Epoch 2001 Apr. 1.0 TT = JDT 2452000.5                  Nakano

M  64.50895              (2000.0)            P               Q

n   0.25977532     Peri.  237.66141     +0.95670164     +0.24278973

a   2.4326005      Node   107.85606     -0.17616631     +0.92206180

e   0.6178347      Incl.    9.71057     -0.23170543     +0.30142195

P   3.79           H   16.4           G   0.15           U   5

Residuals in seconds of arc 

K00BR  704  0.0   0.0     K00C1  046  0.5+  0.0     K00CL  360  0.3-  0.3-  

K00BR  704  0.5-  0.4+    K00C1  046  0.0   0.4+    K00CL  360  0.1-  0.2-  

K00BR  704  0.2-  0.1+    K00C1  711  0.1-  0.4-    K00CL  360  0.1-  0.2+  

K00BR  704  0.1+  0.1+    K00C1  711  0.4+  0.5-    K00CM  118  0.2-  1.0-  

K00BR  704  0.1-  0.4+    K00C1  711  0.6+  0.7-    K00CM  118  0.1-  0.8-  

K00BT  704  0.7+  0.3+    K00C5  693  0.0   0.2+    K00CM  118  0.0   0.3-  

K00BT  704  1.1+  0.7-    K00C5  693  0.0   0.3+    K00CT  691  0.4-  1.2+  

K00BT  704  0.9-  0.8+    K00C5  693  0.0   0.1+    K00CT  691  0.2+  0.0   

K00BT  704  0.0   0.7+    K00C6  360  0.0   0.2-    K00CT  691  0.9+  0.6+  

K00BU  557  0.1-  0.6-    K00C6  360  0.3-  0.0     K00CT  402  0.6+  1.0-  

K00BU  557  0.0   0.5-    K00C6  360  0.1-  0.1-    K00CT  402  0.1+  0.5-  

K00BU  711  0.6-  0.3-    K00C7  046  0.2-  0.2+    K00CT  402  0.5-  0.5+  

K00BU  711  0.5-  0.5-    K00C7  046  0.2-  0.5+    K00CU  704  0.4+  0.1+  

K00C1  046  0.0   0.0     K00C7  046  0.1+  0.5+    K00CU  704  1.1-  0.4+  

K00C1  046  0.4+  0.0     K00C7  046  0.1+  0.2+    K00CU  704  0.4+  0.1-  

K00C1  046  0.4-  0.1-    K00C7  046  0.4+  0.1+    K00CU  704  0.1-  0.4+  

  

NAKANO

         **** Don't distribute anyone except personal use only ****

                (C) Copyright 2000 OAA/ComputingSection

write mail from CFAD0::NAKANO on 2000-12-31 22:21:43(JST).

 



2000 WO67 

Epoch 2000 Dec. 2.0 TT = JDT 2451880.5                  Nakano

M  33.26526              (2000.0)            P               Q

n   0.25948724     Peri.  237.74365     +0.95714347     +0.24126766

a   2.4344006      Node   107.86666     -0.17478269     +0.92229001

e   0.6177884      Incl.    9.69044     -0.23092724     +0.30194546

P   3.80           H   16.2           G   0.15           U   *

  

NAKANO

         **** Don't distribute anyone except personal use only ****

                (C) Copyright 2000 OAA/ComputingSection

write mail from CFAD0::NAKANO on 2000-12-23 02:22:19(JST).

 



2000 WO67 

Epoch 2000 Dec. 2.0 TT = JDT 2451880.5                  Nakano

M  33.79002              (2000.0)            P               Q

n   0.26213367     Peri.  237.38940     +0.95518976     +0.24805229

a   2.4179882      Node   107.80809     -0.18099389     +0.92120511

e   0.6160177      Incl.    9.76622     -0.23420873     +0.29975190

P   3.76           H   16.1           G   0.15           U   *

  

NAKANO

         **** Don't distribute anyone except personal use only ****

                (C) Copyright 2000 OAA/ComputingSection

write mail from CFAD0::NAKANO on 2000-12-08 04:36:18(JST).

 







–ß‚è‚Ü‚·B